TimeWET,TemperatureF,Dew PointF,Humidity,Sea Level PressureIn,VisibilityMPH,Wind Direction,Wind SpeedMPH,Gust SpeedMPH,PrecipitationIn,Events,Conditions,WindDirDegrees,DateUTC
12:00 AM,72,58,52,30.07,6,Calm,Calm,,,,Clear,,2012-10-07 00:00:00
12:00 AM,73.4,59.0,61,30.12,-9999.0,Calm,Calm,-,N/A,,Clear,0,2012-10-07 00:00:00
3:00 AM,69,58,58,30.09,6,Calm,Calm,,,,Clear,,2012-10-07 03:00:00
4:00 AM,73.4,57.2,57,30.12,-9999.0,South,5.8,-,N/A,,Unknown,190,2012-10-07 04:00:00
4:30 AM,73.4,57.2,57,30.12,-9999.0,South,4.6,-,N/A,,Clear,180,2012-10-07 04:30:00
5:00 AM,71.6,57.2,60,30.12,-9999.0,Calm,Calm,-,N/A,,Clear,0,2012-10-07 05:00:00
5:30 AM,71.6,57.2,60,30.12,-9999.0,East,3.5,-,N/A,,Clear,90,2012-10-07 05:30:00
6:00 AM,68,58,62,30.09,6,East,4.6,,,,Clear,80,2012-10-07 06:00:00
6:00 AM,68.0,57.2,68,30.12,-9999.0,East,3.5,-,N/A,,Clear,90,2012-10-07 06:00:00
6:30 AM,68.0,57.2,68,30.12,-9999.0,East,4.6,-,N/A,,Clear,80,2012-10-07 06:30:00
7:00 AM,68.0,59.0,73,30.12,-9999.0,Calm,Calm,-,N/A,,Clear,0,2012-10-07 07:00:00
7:30 AM,71.6,59.0,64,30.12,-9999.0,East,2.3,-,N/A,,Clear,100,2012-10-07 07:30:00
8:00 AM,75.2,59.0,57,30.15,-9999.0,Calm,Calm,-,N/A,,Clear,0,2012-10-07 08:00:00
8:30 AM,78.8,57.2,47,30.15,-9999.0,SE,4.6,-,N/A,,Clear,130,2012-10-07 08:30:00
9:00 AM,82,57,32,30.07,6,East,4.6,,,,Clear,100,2012-10-07 09:00:00
9:00 AM,82.4,57.2,42,30.15,-9999.0,ESE,4.6,-,N/A,,Clear,110,2012-10-07 09:00:00
9:30 AM,84.2,59.0,42,30.15,-9999.0,East,3.5,-,N/A,,Clear,100,2012-10-07 09:30:00
10:00 AM,86.0,59.0,40,30.15,-9999.0,Variable,2.3,-,N/A,,Clear,0,2012-10-07 10:00:00
10:30 AM,89.6,57.2,33,30.15,-9999.0,Calm,Calm,-,N/A,,Clear,0,2012-10-07 10:30:00
11:00 AM,91.4,59.0,34,30.15,-9999.0,Calm,Calm,-,N/A,,Clear,0,2012-10-07 11:00:00
11:30 AM,93.2,59.0,32,30.15,6.2,Variable,1.2,-,N/A,,Partly Cloudy,0,2012-10-07 11:30:00
12:00 PM,94,56,19,30.02,6,Calm,Calm,,,,Scattered Clouds,,2012-10-07 12:00:00
12:00 PM,93.2,57.2,30,30.12,6.2,Calm,Calm,-,N/A,,Partly Cloudy,0,2012-10-07 12:00:00
12:30 PM,95.0,53.6,25,30.12,6.2,NNW,6.9,-,N/A,,Partly Cloudy,340,2012-10-07 12:30:00
1:00 PM,95.0,53.6,25,30.12,6.2,NW,4.6,16.1,N/A,,Partly Cloudy,310,2012-10-07 13:00:00
1:30 PM,95.0,51.8,23,30.12,6.2,NW,9.2,-,N/A,,Partly Cloudy,310,2012-10-07 13:30:00
2:00 PM,95.0,50.0,22,30.09,6.2,WNW,5.8,-,N/A,,Partly Cloudy,300,2012-10-07 14:00:00
2:30 PM,95.0,48.2,20,30.09,6.2,Variable,6.9,-,N/A,,Scattered Clouds,0,2012-10-07 14:30:00
3:00 PM,96,46,10,29.98,6,West,9.2,,,,Scattered Clouds,280,2012-10-07 15:00:00
3:00 PM,96.8,46.4,18,30.09,6.2,WNW,6.9,-,N/A,,Scattered Clouds,290,2012-10-07 15:00:00
3:30 PM,95.0,48.2,20,30.09,6.2,WNW,10.4,-,N/A,,Scattered Clouds,300,2012-10-07 15:30:00
4:00 PM,95.0,46.4,19,30.09,6.2,West,11.5,-,N/A,,Scattered Clouds,270,2012-10-07 16:00:00
4:30 PM,95.0,48.2,20,30.09,6.2,WNW,10.4,-,N/A,,Scattered Clouds,300,2012-10-07 16:30:00
5:00 PM,95.0,42.8,16,30.09,6.2,West,10.4,-,N/A,,Partly Cloudy,270,2012-10-07 17:00:00
5:30 PM,93.2,46.4,20,30.09,6.2,West,11.5,-,N/A,,Partly Cloudy,270,2012-10-07 17:30:00
6:00 PM,89,49,16,30.01,6,WSW,9.2,,,,Scattered Clouds,250,2012-10-07 18:00:00
6:00 PM,89.6,48.2,24,30.12,6.2,West,9.2,-,N/A,,Partly Cloudy,260,2012-10-07 18:00:00
6:30 PM,86.0,50.0,29,30.12,6.2,WSW,9.2,-,N/A,,Partly Cloudy,250,2012-10-07 18:30:00
7:00 PM,84.2,50.0,30,30.12,6.2,West,11.5,-,N/A,,Partly Cloudy,260,2012-10-07 19:00:00
7:30 PM,82.4,53.6,37,30.12,6.2,WSW,12.7,-,N/A,,Partly Cloudy,250,2012-10-07 19:30:00
8:00 PM,80.6,53.6,39,30.15,6.2,West,9.2,-,N/A,,Partly Cloudy,270,2012-10-07 20:00:00
8:30 PM,78.8,55.4,44,30.15,6.2,Calm,Calm,-,N/A,,Partly Cloudy,0,2012-10-07 20:30:00
9:00 PM,81,58,35,30.09,6,North,3.5,,,,Scattered Clouds,10,2012-10-07 21:00:00
9:00 PM,80.6,57.2,45,30.15,6.2,NNE,3.5,-,N/A,,Partly Cloudy,20,2012-10-07 21:00:00
9:30 PM,80.6,59.0,48,30.18,6.2,NNE,1.2,-,N/A,,Partly Cloudy,20,2012-10-07 21:30:00
10:00 PM,78.8,57.2,47,30.18,6.2,Calm,Calm,-,N/A,,Partly Cloudy,0,2012-10-07 22:00:00
10:30 PM,78.8,57.2,47,30.18,-9999.0,Calm,Calm,-,N/A,,Clear,0,2012-10-07 22:30:00
11:00 PM,78.8,55.4,44,30.18,-9999.0,Calm,Calm,-,N/A,,Clear,0,2012-10-07 23:00:00
11:30 PM,75.2,57.2,53,30.18,-9999.0,Calm,Calm,-,N/A,,Clear,0,2012-10-07 23:30:00